Location: Brachbach
(49.1847°N, 9.7240°E)
Time: 23:03:23
(UTC+00:00)

FENGYUN 3A - Pass Details

Date: 20 August 2024
Orbit: 822 x 834 km, 98.6° (Epoch: 07 September)

Event Time Altitude Azimuth Distance (km) Brightness Sun altitude
Rises 03:24:29 0° 4° (N) 3,393 7.4 -9.1°
Reaches altitude 10° 03:27:26 10° 349° (NNW) 2,453 6.4 -8.7°
Maximum altitude 03:31:14 20° 304° (NW) 1,846 5.2 -8.1°
Drops below altitude 10° 03:35:01 10° 259° (W) 2,438 5.5 -7.6°
Enters shadow 03:35:31 - 255° (WSW) 2,583 5.6 -7.5°
